This is the latest recevied weather packets stored in our database for station/object IU5JAE-13. If no packets are shown the sender has not sent any weather packets the latest 10 day(s).
| Time | Temp. | Humidity | Pressure | Rain* | Wind** | Luminosity | Snow |
|---|---|---|---|---|---|---|---|
| 1788001223 | 27.78° C | 38% | 1018 hPa | 0 mm | - | 617 W/m² | - |
| 1788000620 | 27.78° C | 42% | 1018.1 hPa | 0 mm | - | 616 W/m² | - |
| 1788000018 | 27.22° C | 43% | 1017.9 hPa | 0 mm | - | 614 W/m² | - |
| 1787999416 | 27.22° C | 44% | 1018 hPa | 0 mm | - | 610 W/m² | - |
| 1787998833 | 27.22° C | 45% | 1017.9 hPa | 0 mm | - | 604 W/m² | - |
| 1787998231 | 26.67° C | 50% | 1017.8 hPa | 0 mm | - | 593 W/m² | - |
| 1787997628 | 27.22° C | 49% | 1017.8 hPa | 0 mm | - | 580 W/m² | - |
| 1787997026 | 27.22° C | 49% | 1017.6 hPa | 0 mm | - | 566 W/m² | - |
| 1787996424 | 27.78° C | 50% | 1017.7 hPa | 0 mm | - | 553 W/m² | - |
| 1787995821 | 27.22° C | 53% | 1017.6 hPa | 0 mm | - | 539 W/m² | - |
| 1787995219 | 26.67° C | 54% | 1017.7 hPa | 0 mm | - | 520 W/m² | - |
| 1787994616 | 26.67° C | 59% | 1017.6 hPa | 0 mm | - | 497 W/m² | - |
| 1787994034 | 26.11° C | 60% | 1017.7 hPa | 0 mm | - | 473 W/m² | - |
| 1787993431 | 26.11° C | 64% | 1017.6 hPa | 0 mm | - | 452 W/m² | - |
| 1787992829 | 26.11° C | 66% | 1017.6 hPa | 0 mm | - | 432 W/m² | - |
| 1787992227 | 25.56° C | 65% | 1017.3 hPa | 0 mm | - | 410 W/m² | - |
| 1787991624 | 25.56° C | 67% | 1017.3 hPa | 0 mm | - | 384 W/m² | - |
| 1787991022 | 25.56° C | 67% | 1017.3 hPa | 0 mm | - | 360 W/m² | - |
| 1787990428 | 25° C | 70% | 1017.3 hPa | 0 mm | - | 339 W/m² | - |
| 1787989817 | 24.44° C | 72% | 1017.3 hPa | 0 mm | - | 320 W/m² | - |
| 1787989235 | 24.44° C | 74% | 1017.4 hPa | 0 mm | - | 302 W/m² | - |
| 1787988632 | 24.44° C | 74% | 1017.3 hPa | 0 mm | - | 285 W/m² | - |
| 1787988031 | 24.44° C | 72% | 1017.3 hPa | 0 mm | - | 263 W/m² | - |
| 1787987428 | 24.44° C | 71% | 1017.1 hPa | 0 mm | - | 240 W/m² | - |
| 1787986825 | 24.44° C | 73% | 1017.1 hPa | 0 mm | - | 217 W/m² | - |
* Rain latest hour (hover to see other rain measurements)
** Current wind speed in m/s (hover to see current wind gust speed)